OPS 4682 DEB, 38384

Orbit data source: Space-Track

OPS 4682 DEB, 38384 is space debris in LEO originally from a launch on Sat, 03 Apr 1965 UTC launched from the Air Force Western Test Range (AFWTR). Debris objects in space refer to the collection of defunct objects orbiting the Earth. Examples of debris include non-operational satellites, rocket bodies, and fragments generated from explosions, collisions, or faulty payload assembly.

Loading next visibility...
Identifier
38384, 1965-027CM
Orbit
LEO
Country
Flag of USUS
Related business
Manufacturer
Unknown
Mission
Spacecraft
Bus & Motor
Unknown
Mass
Unknown
Launch date (UTC)
1965-04-03 (61 years ago)
Launch vehicle
Unknown
Launch site
Air Force Western Test Range (AFWTR)
Object type
Payload
Rocket body
Debris
Shape & HBR
Unknown shape, 0.1 m
Radar Cross Section
Medium (>0.1 m² and <1 m²)

Expand to show TLE details & history
Last TLE update: 3 days ago

TLE from 3 days ago
0 OPS 4682 DEB
1 38384U 65027CM  26234.15762312  .00000701  00000-0  23522-2 0  9994
2 38384  90.2667  18.7114 0017649 173.6443 186.4905 12.98557932672891
Epoch: 2026-08-22T03:46Z
TLE epoch observation values (Epoch: 2026-08-22T03:46:58.637Z)
Latitude
-0.00007°
Longitude
-8.50498°
Altitude
1,284.034 km
Speed
7.208 km/s
True Right ascension
01h 14m 50s
True Declination
0° 00' 00"
Sunlit
Object was in full shadow at epoch
Visualization orbit readout
Latitude
Unknown
Longitude
Unknown
Altitude
Unknown
Speed
Unknown
Apparent Right ascension
Unknown
Apparent Declination
Unknown
Sunlit
N/A
Visualization observer readout
Local Sidereal Time
17:56:37
Azimuth
Unknown
Elevation
Unknown
Doppler factor
Unknown
Orbital elements
Apogee altitude
1,278.36 km
Perigee altitude
1,251.382 km
Semi-major axis
7,643.008 km
Eccentricity
0.00176
Inclination
90.2667°
RAAN
18.7114°
Arg. of periapsis
173.6443°
True anomaly
186.46769°
Mean anomaly
186.4905°
Eccentric anomaly
186.47909°
Mean motion
3.24823 °/min
Orbital period
110.83 mins
BSTAR
0.0023522
Loading maneuver chart data...
Computing Atmospheric mass density...
Loading historical data...
Loading historical data...
Loading historical data...
Loading historical data...
Loading historical data...
Loading historical data...
Loading historical data...

Documentation

Showing up to 5 results
|